CAPE
4 4 3 2 3 2 2 3 4 3 3 3 4 4 6 6 6 4 5 6 5 2 2 2 2 5 4 3 2 2 1 0 0 0 0 0 0 0 0 0 0 0 10 0 0 0 0 0 0 3 126 152 230 339 1048 1033 1199 877 688 662 436 748 639 670 1047 718 918 1159 1203 1349 1042 752 716 735 519 554 686 638 533 547 316 311 436 142 109 238 294 489
4 4 3 3 2 2 2 2 3 5 3 2 3 3 4 5 8 4 4 4 4 4 2 2 2 2 2 2 1 2 0 0 0 0 0 0 0 0 0 0 0 0 29 0 0 0 0 0 0 14 352 238 548 772 744 1019 1142 858 783 794 618 932 1310 1334 999 667 1133 1108 1112 1497 1121 831 636 521 377 516 433 523 518 512 324 549 582 478 350 314 352 436
3 2 2 1 1 1 2 2 3 3 4 4 2 3 3 4 5 6 4 2 4 4 2 1 2 2 1 1 3 0 0 0 0 0 0 0 0 0 0 0 0 0 21 0 0 0 0 0 0 100 402 515 435 811 745 1143 901 920 765 644 799 1397 1272 1161 1415 1601 1290 879 1492 1360 1043 1015 722 462 451 583 522 386 421 419 319 312 327 403 324 304 352 595
1 1 1 2 2 2 2 2 4 3 2 4 4 3 3 3 3 4 4 2 2 2 3 2 1 1 2 1 0 0 0 0 0 0 0 0 0 0 0 0 0 2 1 0 0 0 0 0 0 88 246 293 627 935 1112 1206 872 604 769 530 940 1398 1312 1088 1454 1754 1607 1300 1387 1362 1180 936 559 395 730 554 292 258 244 281 270 281 303 429 385 382 373 472
1 2 3 4 3 3 3 2 3 4 4 3 3 4 3 3 3 3 3 3 4 1 2 2 1 0 1 3 0 0 0 0 0 0 9 0 0 0 0 0 0 0 0 0 0 0 0 0 0 28 326 516 631 792 1006 1241 484 664 653 848 1025 1397 1357 1101 1243 1981 1530 1636 1263 1196 1156 862 529 364 619 279 25 108 226 278 239 365 456 299 263 231 366 450
2 3 2 3 3 2 3 4 3 3 3 3 3 4 6 6 6 4 3 3 2 2 2 1 1 2 1 1 0 0 0 0 0 0 29 0 0 0 0 0 0 0 0 0 0 0 0 0 0 23 280 464 614 780 817 700 673 616 818 809 1278 1153 948 1660 1671 1687 1385 1539 1312 1008 1414 918 540 432 205 558 715 97 137 336 356 390 302 302 372 427 400 325
3 2 2 2 2 2 2 2 3 3 2 3 4 4 5 5 4 6 5 4 2 3 2 2 2 1 1 0 0 0 0 0 0 0 597 82 0 0 0 0 32 0 0 0 0 0 0 0 0 110 481 442 671 610 611 772 502 253 768 334 1307 1290 1110 1306 1412 1434 1256 1271 1258 1757 1172 914 465 313 424 798 486 246 249 428 405 327 310 196 295 382 320 301
2 3 2 2 2 2 2 3 2 3 2 2 4 3 3 3 5 4 4 2 3 3 2 1 3 0 0 0 0 0 0 0 0 0 279 18 0 0 0 0 0 0 0 0 0 0 0 0 0 230 684 689 657 454 534 274 757 855 670 925 865 1059 875 1074 1374 1222 1160 1357 1705 1273 1203 887 700 780 701 594 390 321 314 448 412 329 323 368 334 240 288 415
2 2 2 2 1 3 3 3 3 2 2 2 2 3 2 3 2 4 3 3 4 4 1 2 2 2 0 0 0 0 0 0 0 0 135 0 0 0 0 0 0 0 0 0 0 0 0 0 0 268 730 655 46 220 10 133 779 520 856 700 1156 772 638 1186 1540 1288 1436 1507 1382 1606 1594 944 906 637 732 517 504 351 339 412 342 348 314 315 315 342 392 397
2 2 3 3 3 2 4 3 2 3 2 0 4 3 2 1 3 4 5 3 4 4 1 2 0 2 0 0 0 0 0 0 0 8 0 0 0 0 0 0 0 0 0 0 0 0 0 0 0 224 109 430 0 0 0 197 249 454 722 698 922 1255 793 1229 1353 1405 1339 1134 1468 1769 1529 1096 699 707 531 584 444 388 333 387 380 372 284 245 342 417 485 411
2 2 2 2 3 3 2 2 2 3 3 3 2 3 3 3 3 2 3 3 2 5 2 2 2 0 0 0 0 0 0 0 0 0 0 0 0 0 0 0 0 0 0 0 0 0 0 0 0 198 1 76 0 0 0 1 87 774 788 1034 1040 801 1392 1023 1139 1279 1233 1382 1433 1313 1270 855 773 958 346 497 481 316 330 372 302 300 262 233 309 390 425 427
2 2 2 2 1 2 1 2 2 2 2 2 2 2 4 3 2 4 2 2 2 4 2 2 0 0 0 0 0 0 0 0 0 0 0 0 0 0 0 0 0 0 0 0 0 0 0 0 0 76 12 0 0 0 0 0 203 802 866 319 606 746 680 637 1050 1001 1208 1456 1428 1381 1224 1210 810 1339 476 548 443 328 327 334 310 309 219 282 280 405 488 453
2 1 3 4 4 1 2 2 3 1 2 2 1 1 2 2 1 1 1 0 0 0 1 0 0 0 0 0 0 0 0 0 0 0 0 0 0 0 0 0 0 0 0 0 0 0 0 0 9 60 0 0 0 37 165 671 947 1168 1077 759 612 738 734 726 1396 1121 1070 1494 1471 651 422 825 1000 1268 593 587 454 300 279 362 313 302 250 252 276 310 414 613
1 1 1 2 3 2 1 1 2 1 2 3 2 1 2 2 2 2 2 0 0 0 1 0 0 0 0 0 0 0 0 0 0 0 0 0 0 0 0 0 0 0 0 0 0 0 0 0 0 160 0 0 0 0 988 981 813 1046 1321 744 772 392 807 712 694 825 1086 1354 1594 1849 505 679 1240 1272 666 519 362 298 259 285 233 154 186 253 238 262 368 576
0 2 1 2 2 2 2 2 2 1 1 2 1 1 1 1 1 2 0 0 0 2 0 0 0 0 0 0 0 0 0 0 0 0 0 0 0 0 0 0 0 0 0 0 0 0 0 0 0 0 0 0 0 0 870 1223 1125 1239 749 725 889 275 565 421 684 674 919 946 1685 855 503 864 1032 1250 765 608 315 232 265 357 238 120 185 220 206 229 277 500
1 2 2 1 2 2 4 4 6 2 2 0 3 0 0 0 0 0 0 1 2 0 0 0 0 0 0 0 0 0 0 0 0 0 0 0 0 0 0 0 0 0 0 0 0 0 0 0 0 0 0 0 0 88 955 1129 998 1125 357 647 640 302 218 379 424 451 1041 784 1020 998 362 902 1225 1389 981 749 404 240 408 443 281 190 223 276 322 205 266 382
1 1 2 2 2 2 1 4 5 1 1 1 0 0 0 0 0 0 0 3 0 0 0 0 0 0 0 0 0 0 0 0 0 0 0 0 0 0 0 0 0 0 0 0 0 0 0 0 0 0 0 0 0 132 971 771 891 868 691 862 458 375 286 1021 422 512 1147 1092 712 1144 702 937 1206 1285 1103 1062 692 700 558 453 296 285 308 324 273 195 298 378
0 1 1 1 2 1 3 5 4 1 0 0 0 0 0 0 1 1 1 1 0 0 0 0 0 0 0 0 0 0 0 0 0 0 0 0 0 0 0 0 0 0 0 0 0 0 0 0 0 0 0 0 0 97 916 280 381 760 554 402 338 328 193 325 442 466 658 1149 1017 734 559 922 1113 1228 1160 1248 965 647 640 421 193 194 324 364 324 262 328 351
1 1 2 2 1 1 3 4 2 1 0 0 0 0 0 0 0 0 0 0 0 179 202 69 8 12 0 0 0 0 0 0 0 0 0 0 0 0 0 0 0 0 0 0 0 0 0 0 0 0 0 0 0 215 570 110 418 635 527 543 271 413 242 315 466 605 823 573 667 490 618 1021 1141 1131 1124 1145 990 777 511 516 216 207 296 322 229 250 263 312
0 2 1 2 1 1 2 1 2 2 0 0 0 0 0 46 0 4 0 0 0 0 0 0 0 0 0 0 0 0 0 0 0 0 0 0 0 0 0 0 0 0 0 0 0 0 0 0 0 0 0 0 0 44 501 63 2 301 640 912 638 257 718 749 592 292 487 655 520 687 385 971 1081 1127 1053 1059 994 706 487 442 327 201 274 168 107 164 270 357
1 1 1 1 1 3 1 2 4 2 0 0 0 0 0 0 0 0 0 8 0 0 0 0 0 0 0 0 0 0 0 0 0 0 0 0 0 0 0 0 0 0 0 0 0 0 0 0 0 2 0 0 0 3 110 56 0 150 496 576 773 557 217 690 691 316 611 812 312 579 685 809 1027 957 928 1074 909 558 362 475 500 325 258 149 135 212 376 575
0 1 1 1 2 0 1 2 1 2 0 0 0 0 0 0 0 0 0 0 0 0 0 0 0 0 0 0 0 0 0 0 0 0 0 0 0 0 0 0 0 0 0 0 0 0 0 0 21 3 0 0 0 0 2 0 29 185 531 485 656 724 830 894 421 321 498 714 1060 634 763 692 749 853 820 1022 875 647 530 604 650 523 388 209 140 248 537 408
0 1 0 1 0 0 0 2 0 0 0 0 0 0 0 0 0 0 0 0 0 0 0 0 0 0 0 0 0 0 0 0 0 0 0 0 0 0 0 0 0 0 0 0 0 0 0 0 26 0 0 0 0 0 0 0 49 504 500 488 273 626 351 568 817 419 489 934 596 1116 366 542 1097 779 758 1084 986 916 638 720 798 739 480 291 210 266 577 197
0 0 1 0 0 0 0 0 1 0 0 0 0 0 0 0 0 0 0 0 0 0 0 0 0 0 0 0 0 0 0 0 0 0 0 0 0 0 0 0 0 0 0 0 0 0 2 20 10 0 0 0 0 0 0 0 0 83 132 67 470 427 549 804 790 463 568 606 800 649 395 394 434 337 361 798 1090 1106 844 764 840 908 691 443 270 181 293 177
0 0 1 2 0 1 0 0 0 0 0 0 0 0 0 0 0 0 0 0 0 0 0 0 0 0 0 0 0 0 0 0 0 0 0 0 0 0 0 0 0 0 0 0 0 0 0 0 0 0 0 0 0 0 0 0 0 0 0 0 17 150 218 923 765 317 141 192 245 273 295 570 649 578 715 857 860 975 954 747 798 947 680 404 181 98 118 126
0 1 1 0 2 0 0 0 0 0 0 0 0 0 0 0 0 0 0 0 1 0 0 0 0 0 0 0 0 0 0 0 0 0 0 0 0 0 0 0 0 0 0 0 0 0 0 0 0 0 0 0 0 0 0 0 0 0 0 0 15 157 624 848 763 576 292 111 424 700 575 608 871 792 842 906 854 891 1085 808 662 747 720 308 174 104 103 91
0 0 1 1 1 1 0 0 0 0 0 0 0 0 0 0 0 0 0 0 0 0 0 0 0 0 0 0 0 0 0 0 0 0 0 0 0 0 0 0 0 0 0 0 0 0 0 0 0 0 0 0 0 0 0 0 0 0 0 0 34 575 731 596 489 291 598 498 502 641 718 269 462 881 837 1022 1081 1064 1132 867 637 576 644 414 236 115 136 117
0 0 1 2 2 0 0 0 0 0 0 0 0 0 0 0 0 0 1 1 0 0 0 0 0 0 0 0 0 0 0 0 0 0 0 0 0 0 0 0 0 0 0 0 0 0 0 0 0 0 0 0 0 0 0 0 0 0 0 0 6 465 897 724 629 268 380 323 191 224 350 433 281 930 969 908 839 874 1042 1002 530 537 512 372 272 132 138 82
0 1 1 3 1 2 0 0 0 0 0 0 0 0 0 0 0 7 12 22 0 0 0 1 0 0 0 0 0 0 0 0 5 0 0 0 0 0 0 0 0 0 0 0 0 0 0 0 0 0 0 0 0 0 0 0 0 0 0 15 76 256 86 411 313 326 692 127 144 259 484 177 284 576 841 1235 688 773 1032 1030 722 582 512 344 230 101 106 104
0 1 1 2 0 0 0 0 0 0 0 0 0 0 0 0 0 20 1 0 0 0 3 0 2 0 0 0 0 0 0 0 0 0 0 0 0 0 0 0 0 0 0 0 6 0 0 0 0 0 0 0 0 0 0 0 0 4 1 70 74 225 709 650 458 416 300 246 230 538 598 72 30 350 486 612 330 827 1015 1253 1030 690 527 360 222 126 98 96
1 0 0 3 0 0 0 0 0 0 0 0 0 0 0 10 20 0 6 0 0 0 0 0 0 0 0 0 0 0 0 0 0 0 0 0 0 0 0 0 0 0 0 0 0 0 0 0 0 0 0 0 0 0 0 0 0 0 10 74 21 100 223 191 345 538 249 88 337 567 502 268 265 1094 952 1091 673 724 920 1239 1080 752 586 255 141 108 92 85
0 0 0 2 0 0 0 0 0 0 0 0 0 3 17 44 0 9 4 0 0 0 0 0 0 0 0 0 0 0 0 0 0 0 0 0 0 0 0 0 0 0 0 0 0 0 0 0 0 0 0 0 0 0 0 0 0 0 0 54 7 27 96 24 224 66 237 17 42 257 320 407 274 347 1262 1257 957 546 897 851 1063 852 555 329 134 134 128 104
0 0 0 0 0 0 0 0 0 0 0 0 6 1 52 0 7 1 2 0 0 0 0 0 0 0 0 0 0 0 0 0 0 0 0 0 0 0 0 0 0 0 0 0 0 0 0 0 0 0 0 0 0 0 0 0 0 0 0 6 0 0 0 9 89 143 166 133 214 369 527 532 566 420 1042 1356 1150 1316 1176 1246 799 886 657 429 224 170 141 146
0 0 0 0 0 0 0 0 0 0 0 0 10 0 0 2 0 0 4 0 0 0 0 0 0 0 0 0 0 0 0 0 0 0 0 0 0 0 0 0 0 0 0 0 0 0 0 0 0 0 0 0 0 0 0 0 0 0 0 0 0 0 1 4 73 183 5 79 285 491 214 725 469 809 389 779 1196 950 868 1463 1018 805 1069 573 316 307 216 201
0 0 0 0 0 0 0 0 0 0 0 0 9 0 0 0 0 0 0 0 0 0 0 0 0 0 0 0 0 0 0 0 0 0 0 0 0 0 0 0 0 0 0 0 0 0 0 0 0 0 0 0 0 0 0 0 0 0 0 0 0 0 0 32 52 10 65 155 680 360 348 691 711 759 896 394 554 249 905 1181 1389 927 785 1188 820 402 233 414
0 0 0 1 3 0 0 0 0 0 0 23 0 0 0 0 0 0 0 0 0 0 0 0 0 0 4 0 0 0 0 0 0 0 0 0 0 2 0 0 0 0 0 0 0 0 0 0 0 0 0 0 0 0 0 0 0 0 0 6 12 5 0 0 0 0 54 66 226 445 394 484 403 334 935 1253 718 430 910 1490 1121 1304 873 1284 1401 878 620 640
8 4 132 19 39 0 0 0 0 0 19 13 0 0 0 0 0 0 0 0 0 0 0 4 1 0 0 0 2 0 0 0 0 0 0 0 0 0 0 0 0 0 0 0 0 0 0 0 0 0 0 0 0 0 0 0 0 0 0 0 0 0 0 12 8 135 69 50 376 326 420 902 315 404 899 1294 1090 688 940 862 1116 886 1300 1177 1582 1382 1087 719
0 3 18 0 0 0 0 0 0 6 11 0 0 0 0 0 0 0 0 0 0 0 0 0 0 0 0 0 0 0 0 0 0 0 0 0 0 0 0 0 0 0 0 0 0 0 0 0 0 0 0 0 0 0 0 0 0 0 28 6 1 19 0 0 0 54 71 64 292 317 358 507 530 614 984 1204 915 917 860 1068 992 1174 1469 1213 965 1110 1316 1085
2 0 0 0 0 0 0 0 0 0 0 0 0 0 0 0 0 0 0 0 0 0 0 0 0 0 6 0 0 0 0 0 0 0 0 0 0 0 0 0 0 0 0 0 0 0 0 0 0 0 0 0 0 0 0 0 0 0 0 1 0 0 0 0 0 0 94 107 129 616 262 407 520 407 896 888 1280 1171 1058 1008 943 1152 1470 1247 904 1130 1377 1413
0 0 0 0 0 0 0 0 13 0 0 0 0 0 0 0 0 0 0 0 0 0 0 0 0 0 0 0 1 6 1 0 0 0 0 0 0 0 0 0 0 0 0 0 0 0 0 0 0 0 0 0 0 0 0 0 0 0 0 1 37 0 0 0 0 0 72 85 216 95 316 282 1495 1727 1225 1678 1503 1169 1240 1024 1069 1198 1429 1401 1392 1493 1624 1708
0 0 0 0 0 0 0 38 0 0 0 0 0 0 0 0 0 0 0 0 0 0 0 0 0 0 2 0 0 1 2 3 0 1 0 0 0 0 0 0 0 0 0 0 0 0 0 0 0 0 0 0 0 0 0 0 0 0 0 0 0 0 0 0 2 1 13 24 81 94 17 683 695 1142 1803 1479 1402 1271 828 846 1134 1345 1481 1427 1538 1468 1429 1697
0 0 0 0 0 0 0 0 0 0 0 0 0 0 0 0 0 0 0 0 0 0 0 2 1 0 0 0 0 6 12 7 6 2 0 1 0 0 0 0 0 0 0 0 0 0 0 0 0 0 0 0 0 0 0 0 0 0 0 0 0 0 0 0 0 13 0 1 118 159 73 831 929 877 1267 1288 1163 1398 1288 1081 1224 1324 1333 1524 1773 1825 2033 2061
0 0 0 0 0 0 8 0 0 0 0 0 0 0 0 0 0 0 0 0 0 0 0 2 2 1 0 4 6 0 16 10 8 20 2 0 0 0 0 0 0 0 0 0 0 2 0 0 0 0 0 0 0 0 0 0 0 0 0 0 0 0 0 0 0 40 117 61 106 57 10 688 682 988 922 1079 1293 1039 1397 1336 1324 1389 1527 1836 2066 2233 2393 2331
0 0 38 25 0 0 0 0 0 0 0 0 0 0 0 0 0 0 0 0 0 0 1 1 0 1 20 4 1 8 12 8 0 3 3 0 1 0 0 0 0 1 0 0 0 21 10 45 13 0 0 0 0 0 0 0 0 0 0 0 0 0 0 0 0 19 65 106 80 0 1 642 1234 772 982 947 1018 1118 1056 1314 1375 1480 1530 1338 1349 1451 1598 1843
44 0 0 0 0 0 0 0 0 0 0 0 0 0 0 0 0 0 0 0 0 0 0 0 2 0 1 5 2 12 0 2 2 0 4 0 0 0 0 0 0 0 4 114 328 52 6 11 51 0 6 0 0 0 0 0 0 0 0 0 0 0 0 1 0 80 22 56 27 44 22 883 1051 925 920 1226 1044 1211 1138 1196 1298 1439 1453 1205 1272 1154 1542 1627
10 0 0 0 0 0 0 0 0 0 0 0 0 0 0 0 0 0 0 0 0 0 0 0 0 0 0 0 0 0 0 0 0 4 19 7 0 0 0 0 0 0 87 71 18 27 25 41 138 46 1 50 111 65 0 0 0 0 0 0 0 0 0 0 0 0 0 104 260 81 23 1258 1162 1042 978 1016 1197 1105 1200 1382 1216 1454 1178 1345 1353 1240 1550 1629
0 0 0 0 0 0 0 0 0 0 0 0 0 0 0 0 0 0 0 0 0 0 0 0 0 0 0 0 0 0 0 0 0 17 16 24 0 0 0 0 0 0 1 147 0 4 23 24 0 0 0 0 0 1 0 0 0 0 0 0 0 0 0 0 0 0 0 0 70 411 607 206 1014 1088 1032 1051 1063 1111 948 1074 1107 1249 1328 1314 1189 1385 1386 1583
36 13 20 129 29 0 0 0 2 0 0 0 0 0 0 0 0 0 0 0 0 0 0 0 0 0 0 13 7 19 40 40 33 1 0 1 33 0 10 0 0 0 11 0 0 10 1 0 0 0 0 0 0 0 0 0 0 0 1 0 1 0 0 0 0 2 0 1 8 814 900 189 624 1026 1090 1150 1152 1180 864 774 716 803 925 1287 1218 1168 1216 1275
96 108 187 43 248 8 144 264 107 0 0 0 0 0 0 0 0 0 0 0 0 0 0 0 0 0 21 41 76 66 207 82 8 53 95 0 0 7 0 1 0 0 0 0 8 14 87 0 0 0 0 0 0 0 0 2 2 11 15 44 91 24 29 4 0 16 32 412 178 356 787 294 1057 1159 1045 1177 1037 833 834 1050 973 1013 943 1009 898 1040 837 1165
207 438 99 221 255 152 282 100 3 0 0 142 0 0 0 0 0 0 0 0 0 0 0 0 0 0 0 10 87 40 62 66 96 72 14 68 2 0 6 0 0 12 0 0 1 105 47 1 199 28 13 0 0 3 18 20 2 10 35 35 36 141 220 348 368 425 332 80 79 147 498 1268 1436 1292 1170 1158 922 896 883 1123 761 871 757 792 889 961 1140 1155
125 214 232 871 54 245 258 0 0 0 0 0 0 0 0 0 0 0 0 0 0 0 0 0 0 0 0 0 0 0 0 6 4 0 0 2 14 0 6 2 0 7 0 0 0 77 21 92 4 3 1 0 1 9 24 29 13 18 14 24 9 119 481 445 367 803 484 528 541 482 660 948 1506 1294 1252 1116 1015 1058 1131 1107 1016 925 713 718 912 1182 951 1079
332 156 326 581 511 198 43 0 0 0 0 1 114 1 0 0 0 0 0 0 0 0 0 0 0 0 0 0 0 0 0 0 0 0 0 0 0 0 0 0 0 0 0 0 1 9 49 94 7 1 0 0 0 8 22 21 22 20 21 19 19 17 151 288 607 677 822 866 630 329 585 1774 1528 1395 1234 1084 1084 1136 1096 928 852 821 893 798 1008 746 630 658
Wind_Speed
nan nan nan nan nan nan nan nan nan nan nan nan nan nan nan nan nan nan nan nan nan nan nan nan nan nan nan nan nan nan nan nan nan nan nan nan nan nan nan nan nan nan nan nan nan nan nan nan nan nan 3 3 3 6 2 4 4 5 8 7 8 13 17 18 17 14 11 4 2 5 5 4 6 8 9 6 8 8 8 9 10 12 14 13 13 10 4 2
nan nan nan nan nan nan nan nan nan nan nan nan nan nan nan nan nan nan nan nan nan nan nan nan nan nan nan nan nan nan nan nan nan nan nan nan nan nan nan nan nan nan nan nan nan nan nan nan nan nan 3 3 4 5 1 3 2 8 8 9 13 12 19 22 18 14 8 4 3 3 3 4 7 7 8 8 6 5 6 7 8 12 16 16 15 11 4 1
nan nan nan nan nan nan nan nan nan nan nan nan nan nan nan nan nan nan nan nan nan nan nan nan nan nan nan nan nan nan nan nan nan nan nan nan nan nan nan nan nan nan nan nan nan nan nan nan nan nan 2 4 4 4 6 3 4 4 8 12 13 16 18 17 17 12 13 6 2 2 2 3 4 6 9 8 6 5 6 6 7 8 12 13 14 10 3 0
nan nan nan nan nan nan nan nan nan nan nan nan nan nan nan nan nan nan nan nan nan nan nan nan nan nan nan nan nan nan nan nan nan nan nan nan nan nan nan nan nan nan nan nan nan nan nan nan nan nan 4 7 5 7 5 4 6 4 6 12 17 13 15 16 14 13 10 5 4 4 3 2 1 6 7 7 6 8 10 8 6 6 10 13 13 9 2 0
nan nan nan nan nan nan nan nan nan nan nan nan nan nan nan nan nan nan nan nan nan nan nan nan nan nan nan nan nan nan nan nan nan nan nan nan nan nan nan nan nan nan nan nan nan nan nan nan nan nan 6 7 7 6 7 4 4 7 8 13 16 12 14 15 13 11 8 8 6 4 1 1 2 1 4 4 nan 9 10 7 7 6 9 10 10 7 2 1
nan nan nan nan nan nan nan nan nan nan nan nan nan nan nan nan nan nan nan nan nan nan nan nan nan nan nan nan nan nan nan nan nan nan nan nan nan nan nan nan nan nan nan nan nan nan nan nan nan nan 6 7 6 8 8 7 3 9 4 11 16 17 21 15 14 10 9 8 8 4 2 1 3 2 1 10 14 nan 11 10 8 8 9 9 9 7 3 0
nan nan nan nan nan nan nan nan nan nan nan nan nan nan nan nan nan nan nan nan nan nan nan nan nan nan nan nan nan nan nan nan nan nan 31 nan nan nan nan nan nan nan nan nan nan nan nan nan nan 7 7 9 8 9 10 9 6 6 8 11 10 15 16 18 15 11 10 10 9 9 3 2 3 2 5 8 11 13 12 11 10 10 11 11 10 7 3 1
nan nan nan nan nan nan nan nan nan nan nan nan nan nan nan nan nan nan nan nan nan nan nan nan nan nan nan nan nan nan nan nan nan nan 32 nan nan nan nan nan nan nan nan nan nan nan nan nan nan 10 10 10 13 9 13 10 4 7 8 9 12 15 15 15 15 13 13 14 15 8 2 2 1 5 5 9 9 11 13 12 11 10 11 11 11 7 4 2
nan nan nan nan nan nan nan nan nan nan nan nan nan nan nan nan nan nan nan nan nan nan nan nan nan nan nan nan nan nan nan nan nan nan 28 nan nan nan nan nan nan nan nan nan nan nan nan nan nan 12 15 12 nan 12 nan 13 7 6 11 10 11 11 17 15 15 16 16 16 12 7 7 5 6 7 10 9 9 9 13 12 10 11 11 11 12 9 5 4
nan nan nan nan nan nan nan nan nan nan nan nan nan nan nan nan nan nan nan nan nan nan nan nan nan nan nan nan nan nan nan nan nan nan nan nan nan nan nan nan nan nan nan nan nan nan nan nan nan 14 22 15 nan nan nan 14 16 12 10 12 9 12 14 18 14 16 17 15 11 9 9 8 4 4 9 8 8 9 10 11 10 10 10 10 13 11 7 5
nan nan nan nan nan nan nan nan nan nan nan nan nan nan nan nan nan nan nan nan nan nan nan nan nan nan nan nan nan nan nan nan nan nan nan nan nan nan nan nan nan nan nan nan nan nan nan nan nan 21 nan nan nan nan nan nan nan 11 11 9 11 13 16 19 17 17 18 16 11 11 13 10 7 11 9 9 8 7 9 9 9 9 9 10 14 13 9 8
nan nan nan nan nan nan nan nan nan nan nan nan nan nan nan nan nan nan nan nan nan nan nan nan nan nan nan nan nan nan nan nan nan nan nan nan nan nan nan nan nan nan nan nan nan nan nan nan nan nan nan nan nan nan nan nan 13 12 6 8 5 14 14 20 19 19 18 18 11 14 16 12 7 9 11 10 7 6 8 7 8 9 9 10 13 14 10 8
nan nan nan nan nan nan nan nan nan nan nan nan nan nan nan nan nan nan nan nan nan nan nan nan nan nan nan nan nan nan nan nan nan nan nan nan nan nan nan nan nan nan nan nan nan nan nan nan nan nan nan nan nan nan 22 17 17 14 9 7 3 9 14 24 22 17 18 19 14 10 11 11 10 9 8 7 7 6 7 6 7 8 8 10 12 13 11 8
nan nan nan nan nan nan nan nan nan nan nan nan nan nan nan nan nan nan nan nan nan nan nan nan nan nan nan nan nan nan nan nan nan nan nan nan nan nan nan nan nan nan nan nan nan nan nan nan nan 19 nan nan nan nan 13 18 12 10 11 3 4 5 12 15 20 19 17 19 17 21 15 12 11 7 6 5 7 7 7 5 6 7 7 9 11 12 10 8
nan nan nan nan nan nan nan nan nan nan nan nan nan nan nan nan nan nan nan nan nan nan nan nan nan nan nan nan nan nan nan nan nan nan nan nan nan nan nan nan nan nan nan nan nan nan nan nan nan nan nan nan nan nan 14 14 13 10 5 6 6 5 13 16 18 23 20 18 20 17 20 13 11 8 6 4 6 7 7 6 5 7 7 7 9 10 9 7
nan nan nan nan nan nan nan nan nan nan nan nan nan nan nan nan nan nan nan nan nan nan nan nan nan nan nan nan nan nan nan nan nan nan nan nan nan nan nan nan nan nan nan nan nan nan nan nan nan nan nan nan nan nan 15 14 14 10 10 10 6 5 12 16 17 21 22 16 19 14 17 15 13 9 6 4 5 6 8 6 5 6 6 6 7 8 9 7
nan nan nan nan nan nan nan nan nan nan nan nan nan nan nan nan nan nan nan nan nan nan nan nan nan nan nan nan nan nan nan nan nan nan nan nan nan nan nan nan nan nan nan nan nan nan nan nan nan nan nan nan nan 14 13 12 14 12 10 14 10 8 9 13 20 20 25 16 15 18 21 19 16 10 7 4 3 7 8 6 4 5 6 5 6 8 9 8
nan nan nan nan nan nan nan nan nan nan nan nan nan nan nan nan nan nan nan nan nan nan nan nan nan nan nan nan nan nan nan nan nan nan nan nan nan nan nan nan nan nan nan nan nan nan nan nan nan nan nan nan nan nan 13 18 17 17 14 12 8 10 7 8 12 17 22 23 18 19 23 23 16 12 8 5 5 6 8 7 4 5 5 5 6 8 10 8
nan nan nan nan nan nan nan nan nan nan nan nan nan nan nan nan nan nan nan nan nan 17 16 nan nan nan nan nan nan nan nan nan nan nan nan nan nan nan nan nan nan nan nan nan nan nan nan nan nan nan nan nan nan 13 14 24 23 18 16 17 14 11 10 9 14 14 18 21 23 17 22 20 16 12 9 7 5 6 8 8 6 5 6 5 5 8 10 9
nan nan nan nan nan nan nan nan nan nan nan nan nan nan nan nan nan nan nan nan nan nan nan nan nan nan nan nan nan nan nan nan nan nan nan nan nan nan nan nan nan nan nan nan nan nan nan nan nan nan nan nan nan nan 19 nan nan 21 17 21 13 17 19 16 14 12 16 25 23 21 21 21 17 13 10 8 7 6 6 7 6 5 6 5 5 8 10 9
nan nan nan nan nan nan nan nan nan nan nan nan nan nan nan nan nan nan nan nan nan nan nan nan nan nan nan nan nan nan nan nan nan nan nan nan nan nan nan nan nan nan nan nan nan nan nan nan nan nan nan nan nan nan 18 nan nan 19 18 17 19 15 16 13 11 11 9 17 23 24 22 22 18 15 12 9 7 5 5 7 5 5 7 7 6 8 9 10
nan nan nan nan nan nan nan nan nan nan nan nan nan nan nan nan nan nan nan nan nan nan nan nan nan nan nan nan nan nan nan nan nan nan nan nan nan nan nan nan nan nan nan nan nan nan nan nan nan nan nan nan nan nan nan nan nan 16 18 20 20 23 18 17 14 11 8 15 26 25 23 24 20 16 14 10 8 9 7 7 7 7 7 8 7 8 8 9
nan nan nan nan nan nan nan nan nan nan nan nan nan nan nan nan nan nan nan nan nan nan nan nan nan nan nan nan nan nan nan nan nan nan nan nan nan nan nan nan nan nan nan nan nan nan nan nan nan nan nan nan nan nan nan nan nan 18 18 19 22 19 9 14 15 11 8 11 19 28 27 26 24 20 17 13 10 11 10 11 10 10 9 9 7 7 8 8
nan nan nan nan nan nan nan nan nan nan nan nan nan nan nan nan nan nan nan nan nan nan nan nan nan nan nan nan nan nan nan nan nan nan nan nan nan nan nan nan nan nan nan nan nan nan nan nan nan nan nan nan nan nan nan nan nan nan 20 nan 27 12 17 20 13 14 12 10 17 24 27 27 25 22 19 15 13 11 10 10 11 12 11 11 10 8 7 8
nan nan nan nan nan nan nan nan nan nan nan nan nan nan nan nan nan nan nan nan nan nan nan nan nan nan nan nan nan nan nan nan nan nan nan nan nan nan nan nan nan nan nan nan nan nan nan nan nan nan nan nan nan nan nan nan nan nan nan nan nan 16 19 20 18 15 13 8 7 16 27 28 24 22 20 18 14 11 10 8 8 10 10 9 8 nan 7 8
nan nan nan nan nan nan nan nan nan nan nan nan nan nan nan nan nan nan nan nan nan nan nan nan nan nan nan nan nan nan nan nan nan nan nan nan nan nan nan nan nan nan nan nan nan nan nan nan nan nan nan nan nan nan nan nan nan nan nan nan nan 19 20 18 15 11 10 9 10 7 21 32 25 19 18 17 14 11 12 8 7 9 10 9 8 7 8 nan
nan nan nan nan nan nan nan nan nan nan nan nan nan nan nan nan nan nan nan nan nan nan nan nan nan nan nan nan nan nan nan nan nan nan nan nan nan nan nan nan nan nan nan nan nan nan nan nan nan nan nan nan nan nan nan nan nan nan nan nan nan 22 18 15 15 14 15 21 13 6 16 29 26 20 19 18 15 12 10 8 8 9 8 8 7 7 9 9
nan nan nan nan nan nan nan nan nan nan nan nan nan nan nan nan nan nan nan nan nan nan nan nan nan nan nan nan nan nan nan nan nan nan nan nan nan nan nan nan nan nan nan nan nan nan nan nan nan nan nan nan nan nan nan nan nan nan nan nan nan 23 21 17 19 12 9 10 11 5 7 19 25 24 20 20 18 13 10 8 7 8 7 7 7 7 9 nan
nan nan nan nan nan nan nan nan nan nan nan nan nan nan nan nan nan nan nan nan nan nan nan nan nan nan nan nan nan nan nan nan nan nan nan nan nan nan nan nan nan nan nan nan nan nan nan nan nan nan nan nan nan nan nan nan nan nan nan nan nan 24 nan 20 13 14 16 12 11 8 10 13 16 20 20 22 22 15 13 11 8 8 6 6 8 7 8 10
nan nan nan nan nan nan nan nan nan nan nan nan nan nan nan nan nan nan nan nan nan nan nan nan nan nan nan nan nan nan nan nan nan nan nan nan nan nan nan nan nan nan nan nan nan nan nan nan nan nan nan nan nan nan nan nan nan nan nan nan nan 25 25 22 23 20 18 15 15 10 7 nan nan 12 13 17 22 21 18 16 13 11 9 6 8 8 nan nan
nan nan nan nan nan nan nan nan nan nan nan nan nan nan nan nan nan nan nan nan nan nan nan nan nan nan nan nan nan nan nan nan nan nan nan nan nan nan nan nan nan nan nan nan nan nan nan nan nan nan nan nan nan nan nan nan nan nan nan nan nan nan 25 22 23 20 16 nan 21 15 9 7 9 17 14 16 28 25 21 16 12 10 10 8 9 9 nan nan
nan nan nan nan nan nan nan nan nan nan nan nan nan nan nan nan nan nan nan nan nan nan nan nan nan nan nan nan nan nan nan nan nan nan nan nan nan nan nan nan nan nan nan nan nan nan nan nan nan nan nan nan nan nan nan nan nan nan nan nan nan nan nan nan 21 nan 16 nan nan 16 14 10 4 13 15 16 16 27 23 20 16 12 12 10 10 9 10 10
nan nan nan nan nan nan nan nan nan nan nan nan nan nan nan nan nan nan nan nan nan nan nan nan nan nan nan nan nan nan nan nan nan nan nan nan nan nan nan nan nan nan nan nan nan nan nan nan nan nan nan nan nan nan nan nan nan nan nan nan nan nan nan nan nan 22 19 20 21 19 16 11 11 13 16 14 8 21 20 21 19 14 14 14 13 13 12 11
nan nan nan nan nan nan nan nan nan nan nan nan nan nan nan nan nan nan nan nan nan nan nan nan nan nan nan nan nan nan nan nan nan nan nan nan nan nan nan nan nan nan nan nan nan nan nan nan nan nan nan nan nan nan nan nan nan nan nan nan nan nan nan nan nan 18 nan nan 22 23 14 15 9 16 13 11 7 9 10 15 21 21 19 17 17 16 14 12
nan nan nan nan nan nan nan nan nan nan nan nan nan nan nan nan nan nan nan nan nan nan nan nan nan nan nan nan nan nan nan nan nan nan nan nan nan nan nan nan nan nan nan nan nan nan nan nan nan nan nan nan nan nan nan nan nan nan nan nan nan nan nan nan nan nan nan 26 20 16 15 18 17 16 16 14 13 11 8 13 19 21 21 19 18 17 14 14
nan nan nan nan nan nan nan nan nan nan nan nan nan nan nan nan nan nan nan nan nan nan nan nan nan nan nan nan nan nan nan nan nan nan nan nan nan nan nan nan nan nan nan nan nan nan nan nan nan nan nan nan nan nan nan nan nan nan nan nan nan nan nan nan nan nan nan nan 16 16 15 15 20 14 15 14 14 12 10 15 16 20 22 21 18 17 16 16
nan nan 19 nan nan nan nan nan nan nan nan nan nan nan nan nan nan nan nan nan nan nan nan nan nan nan nan nan nan nan nan nan nan nan nan nan nan nan nan nan nan nan nan nan nan nan nan nan nan nan nan nan nan nan nan nan nan nan nan nan nan nan nan nan nan 28 nan nan 24 18 11 16 15 15 14 13 12 12 10 8 9 11 17 19 20 18 18 16
nan nan nan nan nan nan nan nan nan nan nan nan nan nan nan nan nan nan nan nan nan nan nan nan nan nan nan nan nan nan nan nan nan nan nan nan nan nan nan nan nan nan nan nan nan nan nan nan nan nan nan nan nan nan nan nan nan nan nan nan nan nan nan nan nan nan nan nan 24 18 13 14 14 18 14 11 11 14 13 8 5 8 10 14 20 19 18 18
nan nan nan nan nan nan nan nan nan nan nan nan nan nan nan nan nan nan nan nan nan nan nan nan nan nan nan nan nan nan nan nan nan nan nan nan nan nan nan nan nan nan nan nan nan nan nan nan nan nan nan nan nan nan nan nan nan nan nan nan nan nan nan nan nan nan nan 18 18 24 19 15 13 18 18 15 13 14 14 11 7 8 9 12 20 23 21 19
nan nan nan nan nan nan nan nan nan nan nan nan nan nan nan nan nan nan nan nan nan nan nan nan nan nan nan nan nan nan nan nan nan nan nan nan nan nan nan nan nan nan nan nan nan nan nan nan nan nan nan nan nan nan nan nan nan nan nan nan nan nan nan nan nan nan nan nan 19 nan 16 19 23 23 20 20 18 14 14 12 8 8 9 9 16 22 23 21
nan nan nan nan nan nan nan nan nan nan nan nan nan nan nan nan nan nan nan nan nan nan nan nan nan nan nan nan nan nan nan nan nan nan nan nan nan nan nan nan nan nan nan nan nan nan nan nan nan nan nan nan nan nan nan nan nan nan nan nan nan nan nan nan nan nan nan nan nan nan nan 23 21 19 21 20 20 18 15 14 11 10 10 8 9 15 20 23
nan nan nan nan nan nan nan nan nan nan nan nan nan nan nan nan nan nan nan nan nan nan nan nan nan nan nan nan nan nan nan nan nan nan nan nan nan nan nan nan nan nan nan nan nan nan nan nan nan nan nan nan nan nan nan nan nan nan nan nan nan nan nan nan nan nan nan nan 23 21 nan 18 16 16 16 17 19 20 18 16 13 13 13 14 13 17 19 22
nan nan nan nan nan nan nan nan nan nan nan nan nan nan nan nan nan nan nan nan nan nan nan nan nan nan nan nan nan nan nan nan nan nan nan nan nan nan nan nan nan nan nan nan nan nan nan nan nan nan nan nan nan nan nan nan nan nan nan nan nan nan nan nan nan nan 22 nan 17 nan nan 19 16 17 15 14 15 18 19 17 17 16 17 17 18 22 25 24
nan nan nan nan nan nan nan nan nan nan nan nan nan nan nan nan nan nan nan nan nan nan nan nan nan nan nan nan nan nan nan nan nan nan nan nan nan nan nan nan nan nan nan nan nan nan nan nan nan nan nan nan nan nan nan nan nan nan nan nan nan nan nan nan nan nan nan 17 nan nan nan 21 18 17 17 13 13 15 16 17 16 17 18 16 15 19 23 27
nan nan nan nan nan nan nan nan nan nan nan nan nan nan nan nan nan nan nan nan nan nan nan nan nan nan nan nan nan nan nan nan nan nan nan nan nan nan nan nan nan nan nan 29 29 nan nan nan nan nan nan nan nan nan nan nan nan nan nan nan nan nan nan nan nan nan nan nan nan nan nan 26 21 18 17 13 12 13 14 15 16 16 18 18 18 16 18 22
nan nan nan nan nan nan nan nan nan nan nan nan nan nan nan nan nan nan nan nan nan nan nan nan nan nan nan nan nan nan nan nan nan nan nan nan nan nan nan nan nan nan nan nan nan nan nan nan 29 nan nan nan 30 nan nan nan nan nan nan nan nan nan nan nan nan nan nan 20 19 nan nan 21 16 16 17 13 12 12 13 14 16 17 17 17 17 17 16 16
nan nan nan nan nan nan nan nan nan nan nan nan nan nan nan nan nan nan nan nan nan nan nan nan nan nan nan nan nan nan nan nan nan nan nan nan nan nan nan nan nan nan nan 19 nan nan nan nan nan nan nan nan nan nan nan nan nan nan nan nan nan nan nan nan nan nan nan nan nan 21 21 14 15 16 17 16 14 14 12 11 15 17 18 18 18 17 16 15
nan nan nan 8 nan nan nan nan nan nan nan nan nan nan nan nan nan nan nan nan nan nan nan nan nan nan nan nan nan nan nan nan nan nan nan nan nan nan nan nan nan nan nan nan nan nan nan nan nan nan nan nan nan nan nan nan nan nan nan nan nan nan nan nan nan nan nan nan nan 24 22 18 20 18 19 20 19 19 13 12 13 14 16 19 20 18 15 14
nan 11 8 nan 5 nan 10 11 9 nan nan nan nan nan nan nan nan nan nan nan nan nan nan nan nan nan nan nan nan nan 17 nan nan nan nan nan nan nan nan nan nan nan nan nan nan nan nan nan nan nan nan nan nan nan nan nan nan nan nan nan nan nan nan nan nan nan nan 27 26 22 21 24 29 24 23 25 24 23 20 18 17 16 15 15 15 14 14 13
11 6 nan 9 7 9 11 nan nan nan nan 10 nan nan nan nan nan nan nan nan nan nan nan nan nan nan nan nan nan nan nan nan nan nan nan nan nan nan nan nan nan nan nan nan nan 29 nan nan 27 nan nan nan nan nan nan nan nan nan nan nan nan 29 29 32 31 30 29 nan nan 27 21 24 30 29 29 30 28 26 26 22 19 19 18 17 15 15 16 15
9 8 6 5 nan 10 8 nan nan nan nan nan nan nan nan nan nan nan nan nan nan nan nan nan nan nan nan nan nan nan nan nan nan nan nan nan nan nan nan nan nan nan nan nan nan nan nan nan nan nan nan nan nan nan nan nan nan nan nan nan nan 34 30 32 30 37 32 31 28 29 27 27 30 27 29 30 28 26 27 26 24 24 23 23 21 19 19 19
6 9 6 4 5 8 nan nan nan nan nan nan 13 nan nan nan nan nan nan nan nan nan nan nan nan nan nan nan nan nan nan nan nan nan nan nan nan nan nan nan nan nan nan nan nan nan nan nan nan nan nan nan nan nan nan nan nan nan nan nan nan nan 32 30 30 31 33 34 29 29 35 36 31 28 28 28 27 27 28 27 27 27 26 25 27 27 24 22
Wind_Direction
nan nan nan nan nan nan nan nan nan nan nan nan nan nan nan nan nan nan nan nan nan nan nan nan nan nan nan nan nan nan nan nan nan nan nan nan nan nan nan nan nan nan nan nan nan nan nan nan nan nan 214 205 150 107 147 85 100 58 47 100 153 165 141 164 152 144 176 123 103 92 110 147 166 156 167 160 170 178 179 192 210 211 210 219 243 246 242 260
nan nan nan nan nan nan nan nan nan nan nan nan nan nan nan nan nan nan nan nan nan nan nan nan nan nan nan nan nan nan nan nan nan nan nan nan nan nan nan nan nan nan nan nan nan nan nan nan nan nan 233 174 213 149 178 155 45 67 67 122 174 164 163 157 166 150 149 154 125 121 137 156 197 172 162 166 168 172 195 194 230 238 243 247 253 261 256 267
nan nan nan nan nan nan nan nan nan nan nan nan nan nan nan nan nan nan nan nan nan nan nan nan nan nan nan nan nan nan nan nan nan nan nan nan nan nan nan nan nan nan nan nan nan nan nan nan nan nan 233 181 170 184 130 201 82 55 82 137 172 178 170 160 157 164 149 220 168 149 163 182 233 187 165 173 169 150 186 194 231 258 273 271 268 270 264 301
nan nan nan nan nan nan nan nan nan nan nan nan nan nan nan nan nan nan nan nan nan nan nan nan nan nan nan nan nan nan nan nan nan nan nan nan nan nan nan nan nan nan nan nan nan nan nan nan nan nan 207 150 206 169 162 203 133 118 109 140 178 177 172 168 158 170 191 207 218 186 200 252 242 211 175 191 178 169 188 192 194 264 281 280 276 272 256 72
nan nan nan nan nan nan nan nan nan nan nan nan nan nan nan nan nan nan nan nan nan nan nan nan nan nan nan nan nan nan nan nan nan nan nan nan nan nan nan nan nan nan nan nan nan nan nan nan nan nan 169 178 199 171 149 195 116 114 105 166 160 178 169 179 170 183 213 220 237 232 305 331 259 306 215 182 nan 184 190 203 204 244 273 279 275 268 240 252
nan nan nan nan nan nan nan nan nan nan nan nan nan nan nan nan nan nan nan nan nan nan nan nan nan nan nan nan nan nan nan nan nan nan nan nan nan nan nan nan nan nan nan nan nan nan nan nan nan nan 180 165 188 166 196 168 196 131 168 165 181 184 177 194 178 193 218 231 254 287 228 334 29 349 272 194 190 nan 210 204 233 256 258 248 246 253 251 304
nan nan nan nan nan nan nan nan nan nan nan nan nan nan nan nan nan nan nan nan nan nan nan nan nan nan nan nan nan nan nan nan nan nan 225 nan nan nan nan nan nan nan nan nan nan nan nan nan nan 194 183 183 186 168 197 180 182 164 152 196 187 206 185 193 184 195 211 234 243 233 255 48 346 295 200 203 211 227 229 220 238 255 262 257 247 246 252 224
nan nan nan nan nan nan nan nan nan nan nan nan nan nan nan nan nan nan nan nan nan nan nan nan nan nan nan nan nan nan nan nan nan nan 229 nan nan nan nan nan nan nan nan nan nan nan nan nan nan 199 178 195 192 180 188 161 158 154 166 178 213 194 196 189 187 194 209 221 226 243 251 240 210 224 210 208 220 238 247 239 251 259 263 258 249 240 231 211
nan nan nan nan nan nan nan nan nan nan nan nan nan nan nan nan nan nan nan nan nan nan nan nan nan nan nan nan nan nan nan nan nan nan 234 nan nan nan nan nan nan nan nan nan nan nan nan nan nan 194 197 189 nan 179 nan 160 190 172 181 183 209 200 196 192 201 201 209 211 226 232 227 221 227 241 215 212 213 238 256 258 263 268 269 265 256 237 206 194
nan nan nan nan nan nan nan nan nan nan nan nan nan nan nan nan nan nan nan nan nan nan nan nan nan nan nan nan nan nan nan nan nan nan nan nan nan nan nan nan nan nan nan nan nan nan nan nan nan 215 189 188 nan nan nan 174 200 184 209 201 198 206 218 198 208 207 206 212 221 224 221 231 243 175 206 202 215 238 263 270 271 273 272 264 255 241 211 204
nan nan nan nan nan nan nan nan nan nan nan nan nan nan nan nan nan nan nan nan nan nan nan nan nan nan nan nan nan nan nan nan nan nan nan nan nan nan nan nan nan nan nan nan nan nan nan nan nan 212 nan nan nan nan nan nan nan 206 219 239 226 186 199 216 212 206 208 215 201 211 213 216 209 153 212 223 220 234 260 274 280 271 263 256 259 250 223 201
nan nan nan nan nan nan nan nan nan nan nan nan nan nan nan nan nan nan nan nan nan nan nan nan nan nan nan nan nan nan nan nan nan nan nan nan nan nan nan nan nan nan nan nan nan nan nan nan nan nan nan nan nan nan nan nan 191 217 215 226 195 194 219 214 204 197 199 213 207 215 218 207 188 208 244 238 224 231 244 265 271 270 265 260 256 247 229 206
nan nan nan nan nan nan nan nan nan nan nan nan nan nan nan nan nan nan nan nan nan nan nan nan nan nan nan nan nan nan nan nan nan nan nan nan nan nan nan nan nan nan nan nan nan nan nan nan nan nan nan nan nan nan 204 188 213 214 172 240 214 210 212 198 189 198 193 210 206 200 196 208 211 236 253 242 240 235 233 243 259 253 259 257 254 245 238 218
nan nan nan nan nan nan nan nan nan nan nan nan nan nan nan nan nan nan nan nan nan nan nan nan nan nan nan nan nan nan nan nan nan nan nan nan nan nan nan nan nan nan nan nan nan nan nan nan nan 191 nan nan nan nan 200 211 200 195 211 167 210 212 207 192 196 189 189 207 192 173 189 207 215 241 257 242 251 244 225 232 251 255 255 256 254 251 241 230
nan nan nan nan nan nan nan nan nan nan nan nan nan nan nan nan nan nan nan nan nan nan nan nan nan nan nan nan nan nan nan nan nan nan nan nan nan nan nan nan nan nan nan nan nan nan nan nan nan nan nan nan nan nan 199 205 205 203 202 208 203 198 203 205 196 195 193 205 187 190 194 195 225 243 255 239 241 243 230 217 235 246 242 254 256 260 247 228
nan nan nan nan nan nan nan nan nan nan nan nan nan nan nan nan nan nan nan nan nan nan nan nan nan nan nan nan nan nan nan nan nan nan nan nan nan nan nan nan nan nan nan nan nan nan nan nan nan nan nan nan nan nan 206 205 206 205 178 214 192 192 213 211 204 199 194 217 197 185 188 231 217 232 251 246 246 240 230 219 216 241 249 248 256 260 244 230
nan nan nan nan nan nan nan nan nan nan nan nan nan nan nan nan nan nan nan nan nan nan nan nan nan nan nan nan nan nan nan nan nan nan nan nan nan nan nan nan nan nan nan nan nan nan nan nan nan nan nan nan nan 203 204 198 209 202 180 201 175 192 246 215 216 201 209 214 213 197 179 215 224 232 239 240 236 234 229 225 214 222 225 225 241 253 246 223
nan nan nan nan nan nan nan nan nan nan nan nan nan nan nan nan nan nan nan nan nan nan nan nan nan nan nan nan nan nan nan nan nan nan nan nan nan nan nan nan nan nan nan nan nan nan nan nan nan nan nan nan nan nan 202 209 190 204 191 226 179 205 236 234 216 220 220 209 189 204 180 217 220 227 225 221 213 217 225 220 211 215 227 216 221 238 244 223
nan nan nan nan nan nan nan nan nan nan nan nan nan nan nan nan nan nan nan nan nan 264 257 nan nan nan nan nan nan nan nan nan nan nan nan nan nan nan nan nan nan nan nan nan nan nan nan nan nan nan nan nan nan 217 214 208 187 204 206 196 226 183 233 240 234 239 233 222 195 198 201 212 222 227 218 216 216 202 222 222 208 200 215 210 214 231 233 220
nan nan nan nan nan nan nan nan nan nan nan nan nan nan nan nan nan nan nan nan nan nan nan nan nan nan nan nan nan nan nan nan nan nan nan nan nan nan nan nan nan nan nan nan nan nan nan nan nan nan nan nan nan nan 201 nan nan 201 203 204 199 227 225 242 246 256 220 204 193 199 195 216 218 222 220 220 218 200 223 229 206 198 207 203 207 230 231 221
nan nan nan nan nan nan nan nan nan nan nan nan nan nan nan nan nan nan nan nan nan nan nan nan nan nan nan nan nan nan nan nan nan nan nan nan nan nan nan nan nan nan nan nan nan nan nan nan nan nan nan nan nan nan 204 nan nan 193 207 208 212 219 243 236 247 272 225 190 199 192 188 215 212 215 218 213 214 208 221 232 215 202 211 201 215 230 229 222
nan nan nan nan nan nan nan nan nan nan nan nan nan nan nan nan nan nan nan nan nan nan nan nan nan nan nan nan nan nan nan nan nan nan nan nan nan nan nan nan nan nan nan nan nan nan nan nan nan nan nan nan nan nan nan nan nan 201 203 215 209 228 244 229 245 273 212 192 203 199 195 208 207 217 213 203 199 197 199 208 207 205 212 207 212 223 227 222
nan nan nan nan nan nan nan nan nan nan nan nan nan nan nan nan nan nan nan nan nan nan nan nan nan nan nan nan nan nan nan nan nan nan nan nan nan nan nan nan nan nan nan nan nan nan nan nan nan nan nan nan nan nan nan nan nan 210 206 213 213 246 242 227 225 257 219 206 221 213 207 199 198 211 204 194 198 196 194 195 198 198 205 211 214 214 218 228
nan nan nan nan nan nan nan nan nan nan nan nan nan nan nan nan nan nan nan nan nan nan nan nan nan nan nan nan nan nan nan nan nan nan nan nan nan nan nan nan nan nan nan nan nan nan nan nan nan nan nan nan nan nan nan nan nan nan 200 nan 230 224 221 216 240 243 230 228 235 217 202 203 202 202 205 198 191 201 200 195 194 198 197 204 208 205 206 223
nan nan nan nan nan nan nan nan nan nan nan nan nan nan nan nan nan nan nan nan nan nan nan nan nan nan nan nan nan nan nan nan nan nan nan nan nan nan nan nan nan nan nan nan nan nan nan nan nan nan nan nan nan nan nan nan nan nan nan nan nan 228 233 236 255 247 223 241 238 221 204 196 202 200 207 213 203 193 207 195 195 200 196 206 207 nan 213 221
nan nan nan nan nan nan nan nan nan nan nan nan nan nan nan nan nan nan nan nan nan nan nan nan nan nan nan nan nan nan nan nan nan nan nan nan nan nan nan nan nan nan nan nan nan nan nan nan nan nan nan nan nan nan nan nan nan nan nan nan nan 217 236 242 246 223 232 219 251 231 208 201 202 202 208 217 209 203 211 192 200 206 198 202 192 203 219 nan
nan nan nan nan nan nan nan nan nan nan nan nan nan nan nan nan nan nan nan nan nan nan nan nan nan nan nan nan nan nan nan nan nan nan nan nan nan nan nan nan nan nan nan nan nan nan nan nan nan nan nan nan nan nan nan nan nan nan nan nan nan 222 233 235 230 216 208 218 228 269 209 193 199 198 204 223 215 213 215 198 205 209 204 194 185 205 227 225
nan nan nan nan nan nan nan nan nan nan nan nan nan nan nan nan nan nan nan nan nan nan nan nan nan nan nan nan nan nan nan nan nan nan nan nan nan nan nan nan nan nan nan nan nan nan nan nan nan nan nan nan nan nan nan nan nan nan nan nan nan 225 223 228 215 208 231 203 216 232 233 195 194 209 210 218 215 211 219 211 211 215 205 199 184 199 228 nan
nan nan nan nan nan nan nan nan nan nan nan nan nan nan nan nan nan nan nan nan nan nan nan nan nan nan nan nan nan nan nan nan nan nan nan nan nan nan nan nan nan nan nan nan nan nan nan nan nan nan nan nan nan nan nan nan nan nan nan nan nan 224 nan 224 222 222 217 181 208 202 224 203 217 220 227 216 207 215 215 220 216 221 218 206 196 196 218 228
nan nan nan nan nan nan nan nan nan nan nan nan nan nan nan nan nan nan nan nan nan nan nan nan nan nan nan nan nan nan nan nan nan nan nan nan nan nan nan nan nan nan nan nan nan nan nan nan nan nan nan nan nan nan nan nan nan nan nan nan nan 227 224 222 221 222 214 203 208 250 237 nan nan 256 266 244 212 209 215 215 215 215 208 210 203 205 nan nan
nan nan nan nan nan nan nan nan nan nan nan nan nan nan nan nan nan nan nan nan nan nan nan nan nan nan nan nan nan nan nan nan nan nan nan nan nan nan nan nan nan nan nan nan nan nan nan nan nan nan nan nan nan nan nan nan nan nan nan nan nan nan 227 224 232 229 223 nan 227 242 242 247 208 249 278 265 224 206 210 212 224 227 217 212 212 207 nan nan
nan nan nan nan nan nan nan nan nan nan nan nan nan nan nan nan nan nan nan nan nan nan nan nan nan nan nan nan nan nan nan nan nan nan nan nan nan nan nan nan nan nan nan nan nan nan nan nan nan nan nan nan nan nan nan nan nan nan nan nan nan nan nan nan 232 nan 226 nan nan 239 251 251 212 243 287 299 225 202 204 205 212 228 225 214 216 214 217 215
nan nan nan nan nan nan nan nan nan nan nan nan nan nan nan nan nan nan nan nan nan nan nan nan nan nan nan nan nan nan nan nan nan nan nan nan nan nan nan nan nan nan nan nan nan nan nan nan nan nan nan nan nan nan nan nan nan nan nan nan nan nan nan nan nan 225 236 244 243 243 257 239 243 270 286 320 218 203 211 205 200 222 226 220 215 211 218 212
nan nan nan nan nan nan nan nan nan nan nan nan nan nan nan nan nan nan nan nan nan nan nan nan nan nan nan nan nan nan nan nan nan nan nan nan nan nan nan nan nan nan nan nan nan nan nan nan nan nan nan nan nan nan nan nan nan nan nan nan nan nan nan nan nan 223 nan nan 246 247 248 239 266 254 254 285 294 238 233 229 213 211 219 222 215 213 213 212
nan nan nan nan nan nan nan nan nan nan nan nan nan nan nan nan nan nan nan nan nan nan nan nan nan nan nan nan nan nan nan nan nan nan nan nan nan nan nan nan nan nan nan nan nan nan nan nan nan nan nan nan nan nan nan nan nan nan nan nan nan nan nan nan nan nan nan 234 241 241 229 234 235 260 248 254 268 258 231 266 241 223 218 221 221 217 213 211
nan nan nan nan nan nan nan nan nan nan nan nan nan nan nan nan nan nan nan nan nan nan nan nan nan nan nan nan nan nan nan nan nan nan nan nan nan nan nan nan nan nan nan nan nan nan nan nan nan nan nan nan nan nan nan nan nan nan nan nan nan nan nan nan nan nan nan nan 243 243 233 241 248 260 257 262 286 291 286 277 268 243 228 223 226 225 218 212
nan nan 349 nan nan nan nan nan nan nan nan nan nan nan nan nan nan nan nan nan nan nan nan nan nan nan nan nan nan nan nan nan nan nan nan nan nan nan nan nan nan nan nan nan nan nan nan nan nan nan nan nan nan nan nan nan nan nan nan nan nan nan nan nan nan 230 nan nan 242 246 235 245 250 246 260 276 289 296 290 285 296 284 244 230 228 227 223 218
nan nan nan nan nan nan nan nan nan nan nan nan nan nan nan nan nan nan nan nan nan nan nan nan nan nan nan nan nan nan nan nan nan nan nan nan nan nan nan nan nan nan nan nan nan nan nan nan nan nan nan nan nan nan nan nan nan nan nan nan nan nan nan nan nan nan nan nan 241 243 238 237 244 256 269 281 293 300 298 285 313 322 286 245 227 218 216 220
nan nan nan nan nan nan nan nan nan nan nan nan nan nan nan nan nan nan nan nan nan nan nan nan nan nan nan nan nan nan nan nan nan nan nan nan nan nan nan nan nan nan nan nan nan nan nan nan nan nan nan nan nan nan nan nan nan nan nan nan nan nan nan nan nan nan nan 221 225 245 242 232 250 244 272 270 274 288 300 303 320 334 318 267 236 223 219 221
nan nan nan nan nan nan nan nan nan nan nan nan nan nan nan nan nan nan nan nan nan nan nan nan nan nan nan nan nan nan nan nan nan nan nan nan nan nan nan nan nan nan nan nan nan nan nan nan nan nan nan nan nan nan nan nan nan nan nan nan nan nan nan nan nan nan nan nan 220 nan 233 236 238 227 243 254 259 269 295 305 302 298 316 296 244 226 223 224
nan nan nan nan nan nan nan nan nan nan nan nan nan nan nan nan nan nan nan nan nan nan nan nan nan nan nan nan nan nan nan nan nan nan nan nan nan nan nan nan nan nan nan nan nan nan nan nan nan nan nan nan nan nan nan nan nan nan nan nan nan nan nan nan nan nan nan nan nan nan nan 236 227 228 229 248 250 257 276 289 294 294 299 309 255 229 230 229
nan nan nan nan nan nan nan nan nan nan nan nan nan nan nan nan nan nan nan nan nan nan nan nan nan nan nan nan nan nan nan nan nan nan nan nan nan nan nan nan nan nan nan nan nan nan nan nan nan nan nan nan nan nan nan nan nan nan nan nan nan nan nan nan nan nan nan nan 216 220 nan 229 226 229 233 239 251 257 265 278 285 289 292 284 260 242 239 238
nan nan nan nan nan nan nan nan nan nan nan nan nan nan nan nan nan nan nan nan nan nan nan nan nan nan nan nan nan nan nan nan nan nan nan nan nan nan nan nan nan nan nan nan nan nan nan nan nan nan nan nan nan nan nan nan nan nan nan nan nan nan nan nan nan nan 225 nan 223 nan nan 235 232 230 239 239 246 251 258 269 277 278 281 281 266 247 240 240
nan nan nan nan nan nan nan nan nan nan nan nan nan nan nan nan nan nan nan nan nan nan nan nan nan nan nan nan nan nan nan nan nan nan nan nan nan nan nan nan nan nan nan nan nan nan nan nan nan nan nan nan nan nan nan nan nan nan nan nan nan nan nan nan nan nan nan 225 nan nan nan 228 225 232 238 244 251 257 259 265 275 277 280 291 284 258 246 244
nan nan nan nan nan nan nan nan nan nan nan nan nan nan nan nan nan nan nan nan nan nan nan nan nan nan nan nan nan nan nan nan nan nan nan nan nan nan nan nan nan nan nan 204 196 nan nan nan nan nan nan nan nan nan nan nan nan nan nan nan nan nan nan nan nan nan nan nan nan nan nan 228 230 230 240 245 253 255 253 256 264 267 276 281 287 278 264 257
nan nan nan nan nan nan nan nan nan nan nan nan nan nan nan nan nan nan nan nan nan nan nan nan nan nan nan nan nan nan nan nan nan nan nan nan nan nan nan nan nan nan nan nan nan nan nan nan 209 nan nan nan 212 nan nan nan nan nan nan nan nan nan nan nan nan nan nan 220 218 nan nan 230 230 231 239 250 254 270 259 248 254 258 263 265 275 285 282 270
nan nan nan nan nan nan nan nan nan nan nan nan nan nan nan nan nan nan nan nan nan nan nan nan nan nan nan nan nan nan nan nan nan nan nan nan nan nan nan nan nan nan nan 196 nan nan nan nan nan nan nan nan nan nan nan nan nan nan nan nan nan nan nan nan nan nan nan nan nan 228 242 222 221 238 239 249 254 262 260 253 256 251 254 260 266 271 280 290
nan nan nan 270 nan nan nan nan nan nan nan nan nan nan nan nan nan nan nan nan nan nan nan nan nan nan nan nan nan nan nan nan nan nan nan nan nan nan nan nan nan nan nan nan nan nan nan nan nan nan nan nan nan nan nan nan nan nan nan nan nan nan nan nan nan nan nan nan nan 243 245 228 231 241 246 246 251 258 260 265 267 267 264 262 264 268 275 281
nan 294 285 nan 300 nan 241 235 224 nan nan nan nan nan nan nan nan nan nan nan nan nan nan nan nan nan nan nan nan nan 228 nan nan nan nan nan nan nan nan nan nan nan nan nan nan nan nan nan nan nan nan nan nan nan nan nan nan nan nan nan nan nan nan nan nan nan nan 213 217 227 227 224 230 240 244 246 245 251 252 250 256 264 270 268 271 274 272 276
286 287 nan 307 284 263 254 nan nan nan nan 230 nan nan nan nan nan nan nan nan nan nan nan nan nan nan nan nan nan nan nan nan nan nan nan nan nan nan nan nan nan nan nan nan nan 214 nan nan 198 nan nan nan nan nan nan nan nan nan nan nan nan 221 221 219 218 221 217 nan nan 219 229 232 231 238 243 244 242 245 249 253 258 261 263 266 267 269 263 260
280 277 281 295 nan 262 252 nan nan nan nan nan nan nan nan nan nan nan nan nan nan nan nan nan nan nan nan nan nan nan nan nan nan nan nan nan nan nan nan nan nan nan nan nan nan nan nan nan nan nan nan nan nan nan nan nan nan nan nan nan nan 213 222 222 221 220 215 224 229 235 236 236 240 243 246 245 245 248 251 252 253 254 261 262 263 263 261 251
305 308 321 299 298 262 nan nan nan nan nan nan 221 nan nan nan nan nan nan nan nan nan nan nan nan nan nan nan nan nan nan nan nan nan nan nan nan nan nan nan nan nan nan nan nan nan nan nan nan nan nan nan nan nan nan nan nan nan nan nan nan nan 216 217 225 225 220 219 230 233 231 230 248 248 250 249 249 249 250 249 249 252 257 261 259 258 258 254